Location: Treviso
(45.6669°N, 12.2430°E)
Time: 05:19:18
(UTC+02:00)

ISS - Pass Details

Date: 26 May 2018
Orbit: 402 x 407 km, 51.6° (Epoch: 25 May)

Event Time Altitude Azimuth Distance (km) Brightness Sun altitude
Rises 01:12:40 0° 298° (WNW) 2,321 0.4 -23.2°
Reaches altitude 10° 01:14:48 10° 304° (NW) 1,459 -0.6 -23.2°
Enters shadow 01:17:14 39° 338° (NNW) 622 -2.5 -23.2°
